When you browse on this site, cookies collect data to enhance your experience and personalize the content and advertising you see.
Visit our Privacy Policy to learn more. By continuing to use the site, you agree to this use of cookies and data.
  • In Switzerland
  • List of Countries
  • For 7 days
  • Water Temperature
  • Weather Map
  • Weather Widgets
  • user-avatar
    Login

    Hourly Weather Borken

    Today, 25 May, Monday

    Time Temperature Precipitation Wind Pressure Humidity
    00:00 +10°C° 0 mm 3 mps 768 mmHg 95%
    01:00 +10°C° 0 mm 3 mps 768 mmHg 95%
    02:00 +10°C° 0 mm 3 mps 768 mmHg 95%
    03:00 +10°C° 0 mm 3 mps 768 mmHg 95%
    04:00 +11°C° 0 mm 4 mps 769 mmHg 92%
    05:00 +12°C° 0 mm 4 mps 769 mmHg 90%
    06:00 +12°C° 0 mm 4 mps 769 mmHg 88%
    07:00 +14°C° 0.1 mm 4 mps 769 mmHg 82%
    08:00 +15°C° 0.1 mm 4 mps 770 mmHg 77%
    09:00 +17°C° 0.1 mm 4 mps 770 mmHg 72%
    10:00 +17°C° 0.1 mm 5 mps 770 mmHg 68%
    11:00 +17°C° 0.1 mm 5 mps 770 mmHg 65%
    12:00 +19°C° 0.1 mm 5 mps 769 mmHg 61%
    13:00 +19°C° 0 mm 5 mps 770 mmHg 62%
    14:00 +19°C° 0 mm 5 mps 770 mmHg 62%
    15:00 +19°C° 0 mm 5 mps 770 mmHg 62%
    16:00 +17°C° 0 mm 5 mps 770 mmHg 65%
    17:00 +18°C° 0 mm 4 mps 770 mmHg 68%
    18:00 +17°C° 0 mm 4 mps 771 mmHg 71%
    19:00 +14°C° 0 mm 3 mps 771 mmHg 77%
    20:00 +12°C° 0 mm 3 mps 771 mmHg 84%
    21:00 +10°C° 0 mm 2 mps 772 mmHg 90%
    22:00 +10°C° 0 mm 2 mps 772 mmHg 91%
    23:00 +9°C° 0 mm 2 mps 772 mmHg 92%

    Tomorrow, 26 May, Tuesday

    Time Temperature Precipitation Wind Pressure Humidity
    00:00 +9°C° 0 mm 1 mps 772 mmHg 93%
    01:00 +9°C° 0 mm 1 mps 772 mmHg 94%
    02:00 +9°C° 0 mm 1 mps 772 mmHg 94%
    03:00 +8°C° 0 mm 1 mps 772 mmHg 94%
    04:00 +9°C° 0 mm 1 mps 772 mmHg 90%
    05:00 +10°C° 0 mm 1 mps 772 mmHg 86%
    06:00 +11°C° 0 mm 1 mps 772 mmHg 82%
    07:00 +13°C° 0 mm 1 mps 772 mmHg 75%
    08:00 +15°C° 0 mm 1 mps 772 mmHg 67%
    09:00 +18°C° 0 mm 1 mps 773 mmHg 59%
    10:00 +18°C° 0 mm 2 mps 772 mmHg 55%
    11:00 +19°C° 0 mm 2 mps 772 mmHg 51%
    12:00 +20°C° 0 mm 2 mps 772 mmHg 47%
    13:00 +21°C° 0 mm 2 mps 771 mmHg 46%
    14:00 +21°C° 0 mm 2 mps 771 mmHg 46%
    15:00 +21°C° 0 mm 3 mps 771 mmHg 46%
    16:00 +21°C° 0 mm 2 mps 771 mmHg 51%
    17:00 +20°C° 0 mm 2 mps 771 mmHg 56%
    18:00 +19°C° 0 mm 2 mps 771 mmHg 62%
    19:00 +18°C° 0 mm 2 mps 771 mmHg 67%
    20:00 +16°C° 0 mm 2 mps 771 mmHg 72%
    21:00 +14°C° 0 mm 2 mps 771 mmHg 77%
    22:00 +13°C° 0 mm 2 mps 771 mmHg 80%
    23:00 +13°C° 0 mm 1 mps 771 mmHg 83%

    Day after tomorrow, 27 May, Wednesday

    Time Temperature Precipitation Wind Pressure Humidity
    00:00 +12°C° 0 mm 1 mps 771 mmHg 86%
    01:00 +12°C° 0 mm 1 mps 771 mmHg 87%
    02:00 +11°C° 0 mm 1 mps 771 mmHg 88%
    03:00 +11°C° 0 mm 1 mps 771 mmHg 90%
    04:00 +13°C° 0 mm 1 mps 771 mmHg 85%
    05:00 +13°C° 0 mm 0 mps 771 mmHg 80%
    06:00 +14°C° 0 mm 0 mps 771 mmHg 76%
    07:00 +16°C° 0 mm 0 mps 771 mmHg 70%
    08:00 +19°C° 0 mm 1 mps 770 mmHg 65%
    09:00 +21°C° 0 mm 1 mps 770 mmHg 59%
    10:00 +20°C° 0 mm 2 mps 770 mmHg 57%
    11:00 +21°C° 0 mm 2 mps 770 mmHg 55%
    12:00 +21°C° 0 mm 3 mps 770 mmHg 52%
    13:00 +21°C° 0 mm 3 mps 770 mmHg 55%
    14:00 +21°C° 0 mm 4 mps 770 mmHg 57%
    15:00 +20°C° 0 mm 4 mps 770 mmHg 59%
    16:00 +19°C° 0 mm 4 mps 770 mmHg 64%
    17:00 +17°C° 0 mm 5 mps 770 mmHg 68%
    18:00 +16°C° 0 mm 5 mps 770 mmHg 73%
    19:00 +14°C° 0 mm 5 mps 770 mmHg 73%
    20:00 +12°C° 0 mm 4 mps 770 mmHg 74%
    21:00 +10°C° 0 mm 4 mps 770 mmHg 74%
    22:00 +10°C° 0 mm 3 mps 770 mmHg 78%
    23:00 +9°C° 0 mm 3 mps 770 mmHg 82%

    28 May, Thursday

    Time Temperature Precipitation Wind Pressure Humidity
    00:00 +8°C° 0 mm 3 mps 770 mmHg 87%
    01:00 +7°C° 0 mm 2 mps 770 mmHg 87%
    02:00 +7°C° 0 mm 2 mps 770 mmHg 88%
    03:00 +7°C° 0 mm 2 mps 770 mmHg 89%
    04:00 +8°C° 0 mm 2 mps 770 mmHg 84%
    05:00 +9°C° 0 mm 2 mps 770 mmHg 79%
    06:00 +12°C° 0 mm 2 mps 770 mmHg 74%
    07:00 +12°C° 0 mm 3 mps 770 mmHg 68%
    08:00 +13°C° 0 mm 3 mps 769 mmHg 62%
    09:00 +16°C° 0 mm 3 mps 769 mmHg 55%
    10:00 +16°C° 0 mm 3 mps 769 mmHg 54%
    11:00 +17°C° 0 mm 4 mps 769 mmHg 52%
    12:00 +18°C° 0 mm 4 mps 768 mmHg 50%
    13:00 +18°C° 0 mm 4 mps 768 mmHg 50%
    14:00 +18°C° 0 mm 4 mps 767 mmHg 49%
    15:00 +18°C° 0 mm 4 mps 767 mmHg 49%
    16:00 +17°C° 0 mm 4 mps 767 mmHg 53%
    17:00 +15°C° 0 mm 4 mps 767 mmHg 57%
    18:00 +14°C° 0 mm 4 mps 767 mmHg 61%
    19:00 +13°C° 0 mm 4 mps 767 mmHg 67%
    20:00 +11°C° 0 mm 4 mps 767 mmHg 73%
    21:00 +9°C° 0 mm 3 mps 767 mmHg 79%
    22:00 +8°C° 0 mm 3 mps 767 mmHg 83%
    23:00 +7°C° 0 mm 3 mps 767 mmHg 87%

    29 May, Friday

    Time Temperature Precipitation Wind Pressure Humidity
    00:00 +6°C° 0 mm 2 mps 767 mmHg 91%
    01:00 +6°C° 0 mm 2 mps 766 mmHg 92%
    02:00 +6°C° 0 mm 2 mps 766 mmHg 92%
    03:00 +5°C° 0 mm 2 mps 766 mmHg 93%
    04:00 +6°C° 0 mm 2 mps 766 mmHg 87%
    05:00 +8°C° 0 mm 2 mps 766 mmHg 82%
    06:00 +9°C° 0 mm 2 mps 765 mmHg 77%
    07:00 +12°C° 0 mm 2 mps 765 mmHg 68%
    08:00 +13°C° 0 mm 2 mps 765 mmHg 59%
    09:00 +15°C° 0 mm 2 mps 765 mmHg 51%
    10:00 +16°C° 0 mm 2 mps 764 mmHg 47%
    11:00 +17°C° 0 mm 2 mps 764 mmHg 43%
    12:00 +18°C° 0 mm 2 mps 763 mmHg 39%
    13:00 +19°C° 0 mm 3 mps 763 mmHg 39%
    14:00 +19°C° 0 mm 3 mps 762 mmHg 40%
    15:00 +20°C° 0 mm 3 mps 762 mmHg 40%
    16:00 +19°C° 0 mm 3 mps 762 mmHg 47%
    17:00 +18°C° 0 mm 3 mps 762 mmHg 53%
    18:00 +17°C° 0 mm 3 mps 762 mmHg 60%
    19:00 +16°C° 0 mm 3 mps 762 mmHg 68%
    20:00 +13°C° 0 mm 3 mps 762 mmHg 75%
    21:00 +11°C° 0 mm 3 mps 762 mmHg 83%
    22:00 +11°C° 0 mm 3 mps 762 mmHg 84%
    23:00 +10°C° 0 mm 3 mps 762 mmHg 85%

    30 May, Saturday

    Time Temperature Precipitation Wind Pressure Humidity
    00:00 +9°C° 0 mm 2 mps 762 mmHg 86%
    01:00 +9°C° 0 mm 3 mps 762 mmHg 86%
    02:00 +9°C° 0 mm 3 mps 762 mmHg 85%
    03:00 +8°C° 0 mm 3 mps 762 mmHg 85%
    04:00 +9°C° 0 mm 3 mps 762 mmHg 81%
    05:00 +11°C° 0 mm 3 mps 762 mmHg 76%
    06:00 +12°C° 0 mm 3 mps 762 mmHg 72%
    07:00 +13°C° 0 mm 3 mps 762 mmHg 65%
    08:00 +16°C° 0 mm 3 mps 762 mmHg 58%
    09:00 +18°C° 0 mm 3 mps 762 mmHg 51%
    10:00 +19°C° 0 mm 3 mps 762 mmHg 47%
    11:00 +19°C° 0 mm 3 mps 762 mmHg 43%
    12:00 +20°C° 0 mm 3 mps 762 mmHg 39%
    13:00 +20°C° 0 mm 3 mps 762 mmHg 39%
    14:00 +21°C° 0 mm 3 mps 762 mmHg 39%
    15:00 +21°C° 0 mm 3 mps 761 mmHg 39%
    16:00 +20°C° 0 mm 3 mps 761 mmHg 45%
    17:00 +19°C° 0 mm 3 mps 761 mmHg 51%
    18:00 +18°C° 0 mm 2 mps 761 mmHg 57%
    19:00 +17°C° 0 mm 3 mps 761 mmHg 61%
    20:00 +14°C° 0 mm 3 mps 761 mmHg 65%
    21:00 +12°C° 0 mm 3 mps 762 mmHg 69%
    22:00 +12°C° 0 mm 3 mps 762 mmHg 73%
    23:00 +11°C° 0 mm 3 mps 761 mmHg 76%
    Show more